TimeCDT,TemperatureF,Dew PointF,Humidity,Sea Level PressureIn,VisibilityMPH,Wind Direction,Wind SpeedMPH,Gust SpeedMPH,PrecipitationIn,Events,Conditions,WindDirDegrees,DateUTC
12:15 AM,67.3,63.0,86,30.03,10.0,South,6.9,-,N/A,,Clear,190,2013-09-07 05:15:00
12:35 AM,67.5,63.1,86,30.03,10.0,South,5.8,-,N/A,,Clear,190,2013-09-07 05:35:00
12:55 AM,67.1,62.8,86,30.03,10.0,South,6.9,-,N/A,,Clear,180,2013-09-07 05:55:00
1:15 AM,67.6,63.1,85,30.03,10.0,South,5.8,-,N/A,,Clear,190,2013-09-07 06:15:00
1:35 AM,67.3,63.0,86,30.03,10.0,South,6.9,-,N/A,,Clear,190,2013-09-07 06:35:00
1:55 AM,68.9,63.9,84,30.02,10.0,SSW,8.1,-,N/A,,Clear,200,2013-09-07 06:55:00
2:15 AM,69.3,64.0,83,30.02,10.0,SSW,8.1,-,N/A,,Clear,200,2013-09-07 07:15:00
2:35 AM,69.3,63.9,83,30.01,10.0,SSW,9.2,-,N/A,,Clear,210,2013-09-07 07:35:00
2:55 AM,69.3,64.0,83,30.01,10.0,SSW,10.4,-,N/A,,Clear,200,2013-09-07 07:55:00
3:15 AM,68.7,63.5,83,30.01,10.0,SSW,9.2,-,N/A,,Clear,200,2013-09-07 08:15:00
3:35 AM,68.0,62.8,83,30.00,10.0,SSW,10.4,-,N/A,,Clear,200,2013-09-07 08:35:00
3:55 AM,68.0,62.6,83,30.01,10.0,SSW,8.1,-,N/A,,Clear,210,2013-09-07 08:55:00
4:15 AM,68.4,63.0,83,30.01,10.0,SW,5.8,-,N/A,,Clear,230,2013-09-07 09:15:00
4:35 AM,66.6,62.1,85,30.01,10.0,SW,4.6,-,N/A,,Clear,220,2013-09-07 09:35:00
4:55 AM,65.3,61.7,88,30.01,10.0,SW,5.8,-,N/A,,Clear,220,2013-09-07 09:55:00
5:15 AM,65.7,61.9,88,30.01,10.0,SW,6.9,-,N/A,,Clear,220,2013-09-07 10:15:00
5:35 AM,65.5,62.1,89,30.01,10.0,SW,6.9,-,N/A,,Clear,220,2013-09-07 10:35:00
5:55 AM,65.8,62.2,88,30.01,10.0,SW,6.9,-,N/A,,Clear,230,2013-09-07 10:55:00
6:15 AM,65.3,61.9,89,30.02,10.0,SW,4.6,-,N/A,,Clear,230,2013-09-07 11:15:00
6:35 AM,65.7,62.2,89,30.01,10.0,SSW,4.6,-,N/A,,Mostly Cloudy,210,2013-09-07 11:35:00
6:55 AM,66.6,62.8,88,30.01,10.0,South,8.1,-,N/A,,Mostly Cloudy,190,2013-09-07 11:55:00
7:15 AM,67.8,63.5,86,30.01,10.0,SW,9.2,-,N/A,Rain,Light Rain,220,2013-09-07 12:15:00
7:35 AM,67.1,63.5,88,30.00,10.0,SSW,13.8,-,N/A,,Clear,210,2013-09-07 12:35:00
7:55 AM,69.6,64.4,83,30.00,10.0,SW,12.7,-,N/A,,Clear,220,2013-09-07 12:55:00
8:15 AM,69.3,63.9,83,30.00,10.0,SW,12.7,-,N/A,,Clear,220,2013-09-07 13:15:00
8:35 AM,73.4,66.6,79,30.00,10.0,SW,9.2,-,N/A,,Clear,230,2013-09-07 13:35:00
8:55 AM,74.3,66.4,76,29.99,10.0,SW,10.4,-,N/A,,Clear,230,2013-09-07 13:55:00
9:15 AM,74.8,65.1,72,29.99,10.0,SW,13.8,18.4,N/A,,Clear,230,2013-09-07 14:15:00
9:35 AM,77.0,65.8,68,29.99,10.0,SW,11.5,-,N/A,,Clear,230,2013-09-07 14:35:00
9:55 AM,78.1,66.4,67,30.00,10.0,WSW,11.5,-,N/A,,Clear,240,2013-09-07 14:55:00
10:15 AM,79.3,66.2,64,30.00,10.0,SW,11.5,-,N/A,,Clear,230,2013-09-07 15:15:00
10:35 AM,79.3,67.1,66,29.99,10.0,SW,10.4,16.1,N/A,,Clear,220,2013-09-07 15:35:00
10:55 AM,81.9,68.0,63,29.99,10.0,SSW,12.7,-,N/A,,Clear,210,2013-09-07 15:55:00
11:15 AM,81.0,67.5,63,29.99,10.0,SW,10.4,18.4,N/A,,Clear,220,2013-09-07 16:15:00
11:35 AM,82.2,66.0,58,29.99,10.0,SW,13.8,18.4,N/A,,Clear,220,2013-09-07 16:35:00
11:55 AM,84.4,67.3,56,29.98,10.0,SSW,12.7,-,N/A,,Clear,210,2013-09-07 16:55:00
12:15 PM,84.9,66.7,54,29.97,10.0,SW,12.7,18.4,N/A,,Clear,220,2013-09-07 17:15:00
12:35 PM,83.7,66.6,56,29.96,10.0,SW,12.7,17.3,N/A,,Scattered Clouds,230,2013-09-07 17:35:00
12:55 PM,82.4,67.3,60,29.96,10.0,SW,8.1,-,N/A,,Clear,230,2013-09-07 17:55:00
1:15 PM,86.0,67.6,54,29.95,10.0,SW,12.7,-,N/A,,Clear,230,2013-09-07 18:15:00
1:35 PM,84.9,68.9,59,29.95,10.0,SW,9.2,-,N/A,,Clear,230,2013-09-07 18:35:00
1:55 PM,86.9,68.9,55,29.94,10.0,SW,11.5,-,N/A,,Clear,220,2013-09-07 18:55:00
2:15 PM,87.8,68.9,53,29.94,10.0,SW,9.2,17.3,N/A,,Clear,230,2013-09-07 19:15:00
2:35 PM,88.0,68.7,53,29.93,10.0,SW,10.4,-,N/A,,Clear,220,2013-09-07 19:35:00
2:55 PM,87.4,69.1,54,29.93,10.0,WSW,6.9,-,N/A,,Clear,250,2013-09-07 19:55:00
3:15 PM,86.9,69.1,55,29.93,10.0,SSW,6.9,-,N/A,,Clear,210,2013-09-07 20:15:00
3:35 PM,86.9,70.0,57,29.93,10.0,SW,4.6,-,N/A,,Clear,230,2013-09-07 20:35:00
3:55 PM,86.9,70.2,57,29.93,10.0,South,4.6,-,N/A,,Clear,190,2013-09-07 20:55:00
4:15 PM,87.3,70.3,57,29.93,10.0,SSW,4.6,-,N/A,,Clear,200,2013-09-07 21:15:00
4:35 PM,87.8,70.0,55,29.92,10.0,SSW,8.1,-,N/A,,Clear,210,2013-09-07 21:35:00
4:55 PM,86.9,70.2,57,29.92,10.0,SSW,6.9,-,N/A,,Clear,210,2013-09-07 21:55:00
5:15 PM,87.8,70.5,56,29.92,10.0,SW,8.1,-,N/A,,Clear,220,2013-09-07 22:15:00
5:35 PM,86.9,70.7,58,29.92,10.0,SSW,6.9,-,N/A,,Clear,210,2013-09-07 22:35:00
5:55 PM,86.9,71.4,60,29.92,10.0,SSW,4.6,-,N/A,,Clear,210,2013-09-07 22:55:00
6:15 PM,85.6,72.0,63,29.92,10.0,SSW,4.6,-,N/A,,Clear,210,2013-09-07 23:15:00
6:35 PM,84.4,72.1,67,29.92,10.0,SSW,4.6,-,N/A,,Clear,210,2013-09-07 23:35:00
6:55 PM,81.9,72.5,73,29.92,10.0,SSW,3.5,-,N/A,,Clear,210,2013-09-07 23:55:00
7:15 PM,81.1,73.0,76,29.92,10.0,Calm,Calm,-,N/A,,Clear,0,2013-09-08 00:15:00
7:35 PM,79.3,71.6,77,29.93,10.0,Calm,Calm,-,N/A,,Clear,0,2013-09-08 00:35:00
7:55 PM,78.6,73.4,84,29.94,10.0,NNE,3.5,-,N/A,,Clear,30,2013-09-08 00:55:00
8:15 PM,77.0,72.1,85,29.94,10.0,Calm,Calm,-,N/A,,Clear,0,2013-09-08 01:15:00
8:35 PM,76.3,71.6,85,29.95,10.0,SE,4.6,-,N/A,,Clear,130,2013-09-08 01:35:00
8:55 PM,74.3,71.2,90,29.96,10.0,SE,3.5,-,N/A,,Clear,140,2013-09-08 01:55:00
9:15 PM,74.3,70.3,87,29.96,10.0,SE,4.6,-,N/A,,Clear,130,2013-09-08 02:15:00
9:35 PM,74.3,70.5,88,29.96,10.0,SE,3.5,-,N/A,,Clear,140,2013-09-08 02:35:00
9:55 PM,74.3,71.1,90,29.96,7.0,South,4.6,-,N/A,,Clear,170,2013-09-08 02:55:00
10:15 PM,74.3,70.9,89,29.96,10.0,Calm,Calm,-,N/A,,Clear,0,2013-09-08 03:15:00
10:35 PM,74.3,70.9,89,29.96,10.0,SSW,4.6,-,N/A,,Clear,200,2013-09-08 03:35:00
10:55 PM,74.3,70.2,87,29.96,10.0,Calm,Calm,-,N/A,,Clear,0,2013-09-08 03:55:00
11:15 PM,74.3,70.2,87,29.96,10.0,Calm,Calm,-,N/A,,Clear,0,2013-09-08 04:15:00
11:35 PM,74.3,70.7,88,29.96,10.0,Calm,Calm,-,N/A,,Clear,0,2013-09-08 04:35:00
11:55 PM,71.8,68.5,89,29.96,10.0,Calm,Calm,-,N/A,,Clear,0,2013-09-08 04:55:00